Tracking 18980 objects as of 22-Feb-2018
HD Live streaming from Space Station
objects crossing your sky now

COSMOS 2172

Track COSMOS 2172 now!
COSMOS 2172 is classified as:


NORAD ID: 21789
Int'l Code: 1991-079A
Perigee: 35,768.9 km
Apogee: 35,845.4 km
Inclination: 15.0 °
Period: 1,436.8 minutes
Semi major axis: 42178 km
RCS: 5.0118 m2 (large)
Launch date: November 22, 1991
Source: Commonwealth of Independent States (former USSR) (CIS)
Launch site: TYURATAM MISSILE AND SPACE COMPLEX (TTMTR)
aabbcc
Your satellite tracking list
Your tracking list is empty




NASA's NSSDC Master Catalog

Two Line Element Set (TLE):
1 21789U 91079A   18051.54403314 +.00000079 +00000-0 +00000-0 0  9998
2 21789 015.0495 006.2549 0009068 300.4336 231.5352 01.00224048016886
Source of the keplerian elements: AFSPC